Tracking 17886 objects as of 9-December-2016
HD Live streaming from Space Station
objects crossing your sky now

BEIDOU 1B

Track BEIDOU 1B now!
BEIDOU 1B is classified as:


NORAD ID: 26643
Int'l Code: 2000-082A
Perigee: 35,745.4 km
Apogee: 36,416.5 km
Inclination: 7.7 °
Period: 1,450.8 minutes
Semi major axis: 42451 km
RCS: 0.1238 m2 (medium)
Launch date: December 20, 2000
Source: People's Republic of China (PRC)
Launch site: Xichang Space Center, China (XSC)

Space-bsaed navigation and positioning system to improve accuracy of weapons and situational awareness of military forces.
Your satellite tracking list
Your tracking list is empty





NASA's NSSDC Master Catalog

Two Line Element Set (TLE):
1 26643U 00082A   16343.48729545 -.00000276  00000-0  00000+0 0  9997
2 26643   7.6804  49.8194 0079039   2.4597 357.4805  0.99256035 58338
Source of the keplerian elements: AFSPC